Overview Statistics Trail Chart Weather Telemetry Raw packets
 

This is the latest recevied weather packets stored in our database for station/object WD7OO. If no packets are shown the sender has not sent any weather packets the latest 10 day(s).

<< 53 54 55 56 57 58 59 >>
Time Temp. Humidity Pressure Rain* Wind** Luminosity Snow
1788264029 24.44° C 88% 1016.4 hPa 0 mm - 55 W/m² -
1788263724 24.44° C 88% 1016.5 hPa 0 mm - 38 W/m² -
1788263421 24.44° C 89% 1016.4 hPa 0 mm - 29 W/m² -
1788263117 24.44° C 89% 1016.2 hPa 0 mm - 21 W/m² -
1788262815 24.44° C 89% 1016.3 hPa 0 mm - 15 W/m² -
1788262514 24.44° C 89% 1016.4 hPa 0 mm - 13 W/m² -
1788262219 23.89° C 89% 1016 hPa 0 mm - 16 W/m² -
1788261904 23.89° C 90% 1016 hPa 0 mm - 13 W/m² -
1788261599 23.89° C 89% 1016 hPa 0 mm - 5 W/m² -
1788261298 23.89° C 89% 1015.9 hPa 0 mm - 1 W/m² -
1788260996 23.89° C 89% 1015.8 hPa 0 mm - 0 W/m² -
1788260692 23.89° C 89% 1015.8 hPa 0 mm - 0 W/m² -
1788260388 23.89° C 90% 1015.9 hPa 0 mm - 0 W/m² -
1788260084 23.89° C 89% 1015.7 hPa 0 mm - 0 W/m² -
1788259779 23.89° C 89% 1015.8 hPa 0 mm - 0 W/m² -
1788259474 23.89° C 89% 1015.6 hPa 0 mm - 0 W/m² -
1788259170 23.89° C 90% 1015.8 hPa 0 mm - 0 W/m² -
1788258870 23.89° C 89% 1015.5 hPa 0 mm - 0 W/m² -
1788258570 23.89° C 88% 1015.5 hPa 0 mm - 0 W/m² -
1788258265 23.89° C 89% 1015.8 hPa 0 mm - 0 W/m² -
1788257960 23.89° C 89% 1015.8 hPa 0 mm - 0 W/m² -
1788257655 23.89° C 89% 1015.9 hPa 0 mm - 0 W/m² -
1788257354 23.89° C 90% 1015.7 hPa 0 mm - 0 W/m² -
1788257049 23.33° C 92% 1015.8 hPa 0 mm - 0 W/m² -
1788256742 23.33° C 92% 1015.7 hPa 0 mm - 0 W/m² -

* Rain latest hour (hover to see other rain measurements)
** Current wind speed in m/s (hover to see current wind gust speed)